| time (UTC) | temp F | wind direction | speed knots | gust knots | rain 1hr in | rain 24hr in | rain mn in | humidity % | barometer mb |
| 20260901201556 | 84 | 14 | 0.9 | 2.6 | 0.00 | 0.00 | 0.00 | 78 | 1011.7 |
| 20260901200106 | 83 | 14 | 1.7 | 3.5 | 0.00 | 0.00 | 0.00 | 79 | 1011.7 |
| 20260901194603 | 82 | 14 | 0.0 | 1.7 | 0.00 | 0.01 | 0.00 | 79 | 1011.7 |
| 20260901193102 | 81 | 14 | 0.0 | 2.6 | 0.00 | 0.01 | 0.00 | 82 | 1011.9 |
| 20260901191556 | 81 | 334 | 0.0 | 2.6 | 0.00 | 0.01 | 0.00 | 82 | 1012.3 |
| 20260901190112 | 80 | 58 | 0.9 | 4.3 | 0.00 | 0.01 | 0.00 | 83 | 1012.3 |
| 20260901184605 | 80 | 15 | 0.9 | 4.3 | 0.00 | 0.03 | 0.00 | 84 | 1012.6 |
| 20260901183057 | 78 | 319 | 0.0 | 3.5 | 0.00 | 0.03 | 0.00 | 85 | 1012.6 |
| 20260901181559 | 79 | 15 | 0.0 | 5.2 | 0.00 | 0.03 | 0.00 | 84 | 1012.6 |
| 20260901180100 | 80 | 300 | 0.9 | 3.5 | 0.00 | 0.03 | 0.00 | 83 | 1012.4 |
| 20260901174604 | 79 | 339 | 2.6 | 5.2 | 0.00 | 0.04 | 0.00 | 83 | 1012.5 |
| 20260901173059 | 77 | 323 | 0.0 | 3.5 | 0.00 | 0.04 | 0.00 | 86 | 1012.5 |
| 20260901171556 | 78 | 254 | 0.0 | 3.5 | 0.00 | 0.04 | 0.00 | 84 | 1012.6 |
| 20260901170156 | 79 | 317 | 0.9 | 3.5 | 0.00 | 0.04 | 0.00 | 83 | 1012.7 |
| 20260901164557 | 79 | 311 | 0.9 | 3.5 | 0.00 | 0.07 | 0.00 | 84 | 1012.8 |
| 20260901163103 | 79 | 297 | 0.9 | 2.6 | 0.00 | 0.07 | 0.00 | 84 | 1012.8 |
| 20260901161613 | 78 | 297 | 0.9 | 2.6 | 0.00 | 0.07 | 0.00 | 85 | 1012.9 |
| 20260901160057 | 78 | 297 | 0.0 | 2.6 | 0.00 | 0.07 | 0.00 | 85 | 1012.8 |
| 20260901154605 | 77 | 297 | 0.0 | 1.7 | 0.00 | 0.28 | 0.00 | 85 | 1012.9 |
| 20260901153122 | 78 | 297 | 0.0 | 3.5 | 0.00 | 0.28 | 0.00 | 85 | 1012.8 |
| 20260901151558 | 78 | 298 | 0.0 | 3.5 | 0.00 | 0.28 | 0.00 | 86 | 1012.7 |
| 20260901150058 | 77 | 331 | 0.0 | 1.7 | 0.00 | 0.28 | 0.00 | 87 | 1012.9 |
| 20260901144559 | 78 | 331 | 0.0 | 2.6 | 0.00 | 0.31 | 0.00 | 85 | 1012.8 |
| 20260901143059 | 77 | 331 | 0.0 | 3.5 | 0.00 | 0.31 | 0.00 | 86 | 1012.6 |
| 20260901141558 | 77 | 331 | 0.0 | 2.6 | 0.00 | 0.31 | 0.00 | 86 | 1012.5 |
| 20260901140058 | 77 | 293 | 0.9 | 2.6 | 0.00 | 0.31 | 0.00 | 87 | 1012.5 |
| 20260901134558 | 77 | 293 | 0.9 | 2.6 | 0.00 | 0.31 | 0.00 | 87 | 1012.5 |
| 20260901133058 | 77 | 293 | 0.0 | 2.6 | 0.00 | 0.31 | 0.00 | 86 | 1012.6 |
| 20260901131620 | 77 | 202 | 0.0 | 1.7 | 0.00 | 0.31 | 0.00 | 89 | 1012.5 |
| 20260901124602 | 75 | 139 | 0.0 | 1.7 | 0.00 | 0.32 | 0.00 | 91 | 1012.8 |
| 20260901123058 | 74 | 139 | 0.0 | 1.7 | 0.00 | 0.32 | 0.00 | 94 | 1012.8 |
| 20260901121558 | 73 | 139 | 0.0 | 0.0 | 0.00 | 0.32 | 0.00 | 95 | 1012.6 |
| 20260901120058 | 71 | 182 | 0.0 | 0.9 | 0.00 | 0.32 | 0.00 | 95 | 1012.6 |
| 20260901114558 | 71 | 182 | 0.0 | 0.0 | 0.00 | 0.37 | 0.00 | 94 | 1012.3 |
| 20260901113107 | 71 | 182 | 0.0 | 0.0 | 0.00 | 0.37 | 0.00 | 94 | 1012.2 |
| 20260901111606 | 71 | 182 | 0.0 | 2.6 | 0.00 | 0.37 | 0.00 | 94 | 1012.1 |
| 20260901110106 | 71 | 182 | 0.0 | 0.9 | 0.00 | 0.37 | 0.00 | 94 | 1012.0 |
| 20260901104604 | 71 | 143 | 0.0 | 2.6 | 0.00 | 0.51 | 0.00 | 94 | 1011.8 |
| 20260901103058 | 71 | 143 | 0.0 | 1.7 | 0.00 | 0.51 | 0.00 | 94 | 1011.8 |
| 20260901101607 | 71 | 143 | 0.0 | 0.0 | 0.00 | 0.51 | 0.00 | 93 | 1011.7 |
| 20260901100109 | 71 | 143 | 0.0 | 0.0 | 0.00 | 0.51 | 0.00 | 93 | 1011.7 |
| 20260901094603 | 72 | 143 | 0.0 | 2.6 | 0.00 | 0.52 | 0.00 | 93 | 1011.6 |
| 20260901093058 | 72 | 143 | 0.0 | 2.6 | 0.00 | 0.52 | 0.00 | 93 | 1011.7 |
| 20260901091559 | 72 | 143 | 0.0 | 2.6 | 0.00 | 0.52 | 0.00 | 92 | 1011.6 |
| 20260901084609 | 71 | 142 | 0.0 | 2.6 | 0.00 | 0.53 | 0.00 | 92 | 1011.4 |
| 20260901083100 | 72 | 142 | 0.0 | 3.5 | 0.00 | 0.53 | 0.00 | 91 | 1011.4 |
| 20260901081605 | 72 | 142 | 0.0 | 2.6 | 0.00 | 0.53 | 0.00 | 90 | 1011.2 |
| 20260901080059 | 72 | 142 | 0.0 | 3.5 | 0.00 | 0.53 | 0.00 | 90 | 1011.2 |
| 20260901074559 | 72 | 142 | 0.0 | 5.2 | 0.00 | 0.53 | 0.00 | 90 | 1011.2 |
| 20260901073059 | 72 | 139 | 0.9 | 5.2 | 0.00 | 0.53 | 0.00 | 89 | 1011.3 |
| 20260901071559 | 72 | 143 | 1.7 | 4.3 | 0.00 | 0.53 | 0.00 | 89 | 1011.4 |
| 20260901070059 | 72 | 144 | 1.7 | 7.8 | 0.00 | 0.53 | 0.00 | 89 | 1011.2 |
| 20260901064559 | 72 | 198 | 0.9 | 4.3 | 0.00 | 0.56 | 0.00 | 88 | 1011.2 |
| 20260901063102 | 72 | 142 | 0.9 | 7.8 | 0.00 | 0.56 | 0.00 | 88 | 1011.3 |
| 20260901061613 | 73 | 160 | 0.9 | 5.2 | 0.00 | 0.56 | 0.00 | 87 | 1011.6 |
| 20260901060103 | 73 | 145 | 2.6 | 7.8 | 0.00 | 0.56 | 0.00 | 87 | 1011.6 |
| 20260901054609 | 72 | 155 | 1.7 | 7.0 | 0.00 | 0.62 | 0.00 | 87 | 1011.8 |
| 20260901053122 | 72 | 159 | 2.6 | 7.8 | 0.00 | 0.62 | 0.00 | 87 | 1012.0 |
| 20260901051603 | 72 | 167 | 3.5 | 9.6 | 0.00 | 0.62 | 0.00 | 87 | 1012.1 |
| 20260901050100 | 72 | 152 | 2.6 | 4.3 | 0.00 | 0.62 | 0.00 | 87 | 1012.1 |
| 20260901044559 | 72 | 156 | 1.7 | 7.0 | 0.00 | 0.62 | 0.00 | 87 | 1012.1 |
| 20260901043102 | 72 | 156 | 2.6 | 6.1 | 0.00 | 0.62 | 0.00 | 88 | 1012.0 |
| 20260901041609 | 72 | 158 | 0.0 | 5.2 | 0.00 | 0.62 | 0.00 | 89 | 1012.1 |
| 20260901040121 | 72 | 151 | 1.7 | 5.2 | 0.00 | 0.62 | 0.00 | 88 | 1012.2 |
| 20260901040002 | 72 | 151 | 0.9 | 5.2 | 0.00 | 0.62 | 0.00 | 88 | 1012.1 |
| 20260901034600 | 72 | 164 | 0.9 | 6.1 | 0.00 | 0.62 | 0.62 | 88 | 1012.2 |
| 20260901033115 | 72 | 176 | 0.9 | 8.7 | 0.00 | 0.62 | 0.62 | 88 | 1012.3 |
| 20260901031612 | 72 | 157 | 2.6 | 6.1 | 0.00 | 0.62 | 0.62 | 89 | 1012.6 |
| 20260901024601 | 72 | 151 | 0.9 | 5.2 | 0.00 | 0.62 | 0.62 | 91 | 1012.7 |
| 20260901023101 | 72 | 165 | 0.9 | 6.1 | 0.00 | 0.62 | 0.62 | 92 | 1012.7 |
| 20260901021600 | 72 | 169 | 0.0 | 1.7 | 0.00 | 0.62 | 0.62 | 92 | 1012.6 |
| 20260901014601 | 72 | 139 | 0.0 | 3.5 | 0.00 | 0.62 | 0.62 | 93 | 1012.4 |
| 20260901013107 | 72 | 92 | 0.0 | 1.7 | 0.00 | 0.62 | 0.62 | 94 | 1012.4 |
| 20260901011602 | 72 | 191 | 0.0 | 2.6 | 0.00 | 0.62 | 0.62 | 94 | 1012.4 |
| 20260901010101 | 72 | 121 | 0.0 | 6.1 | 0.00 | 0.62 | 0.62 | 94 | 1012.4 |
| 20260901004601 | 72 | 97 | 0.0 | 2.6 | 0.00 | 0.66 | 0.62 | 95 | 1012.3 |
| 20260901003105 | 72 | 49 | 0.0 | 3.5 | 0.00 | 0.66 | 0.62 | 95 | 1012.3 |
| 20260901001500 | 72 | 120 | 0.0 | 1.7 | 0.00 | 0.66 | 0.62 | 95 | 1012.6 |
| 20260901000002 | 72 | 120 | 0.0 | 1.7 | 0.00 | 0.66 | 0.62 | 94 | 1012.7 |
| 20260831234500 | 72 | 120 | 0.0 | 2.6 | 0.00 | 0.70 | 0.62 | 94 | 1012.8 |
| 20260831233000 | 73 | 120 | 0.0 | 1.7 | 0.00 | 0.70 | 0.62 | 95 | 1013.1 |
| 20260831231501 | 73 | 120 | 0.0 | 1.7 | 0.00 | 0.70 | 0.62 | 95 | 1013.2 |
| 20260831230000 | 73 | 120 | 0.0 | 0.9 | 0.00 | 0.70 | 0.62 | 95 | 1013.2 |
| 20260831224501 | 73 | 160 | 0.0 | 2.6 | 0.00 | 0.73 | 0.62 | 95 | 1013.0 |
| 20260831223001 | 73 | 126 | 0.0 | 0.9 | 0.00 | 0.73 | 0.62 | 95 | 1013.3 |
| 20260831221504 | 73 | 126 | 0.0 | 3.5 | 0.00 | 0.73 | 0.62 | 95 | 1013.0 |
| 20260831220001 | 73 | 126 | 0.9 | 4.3 | 0.00 | 0.73 | 0.62 | 94 | 1013.4 |
| 20260831214501 | 73 | 77 | 0.0 | 0.0 | 0.00 | 0.74 | 0.62 | 94 | 1013.3 |
| 20260831213003 | 73 | 77 | 0.0 | 0.0 | 0.00 | 0.74 | 0.62 | 94 | 1013.2 |
| 20260831211502 | 73 | 77 | 0.0 | 2.6 | 0.00 | 0.74 | 0.62 | 94 | 1013.4 |
| 20260831210003 | 74 | 77 | 0.0 | 4.3 | 0.00 | 0.74 | 0.62 | 95 | 1013.4 |
| 20260831204502 | 74 | 101 | 0.0 | 3.5 | 0.00 | 0.77 | 0.62 | 96 | 1013.2 |
| 20260831203002 | 73 | 150 | 0.9 | 2.6 | 0.00 | 0.77 | 0.62 | 96 | 1012.9 |